This demonstration page uses our WeatherBlox Daily Observations layout. Learn more.

Left ArrowRight Arrow

44.89941, -97.11507

Hourly Observations for April 4, 2016

Temp ( °F °C ) Dew Point ( °F °C ) Humidity (%) Winds ( mph kmh ) Pressure ( in mb ) Visibility ( mi km ) Precip ( " mm )
12:53 am 00:53 Clear 28 -2.2 20 -6.7 72 72 N 12 19 30.07 1018 10 16 0.00 0.00
1:53 am 01:53 Clear 26 -3.3 19 -7.2 75 75 N 8 13 30.11 1020 10 16 0.00 0.00
2:53 am 02:53 Clear 24 -4.4 18 -7.8 77 77 NNW 9 15 30.14 1021 10 16 0.00 0.00
3:53 am 03:53 Clear 22 -5.6 17 -8.3 82 82 N 8 13 30.17 1022 10 16 0.00 0.00
4:53 am 04:53 Clear 23 -5 17 -8.3 78 78 NNW 9 15 30.19 1023 10 16 0.00 0.00
5:53 am 05:53 Clear 22 -5.6 17 -8.3 82 82 N 7 11 30.22 1023 10 16 0.00 0.00
6:53 am 06:53 Clear 20 -6.7 15 -9.4 81 81 N 3 6 30.25 1024 10 16 0.00 0.00
7:53 am 07:53 Sunny 22 -5.6 17 -8.3 82 82 N 5 7 30.29 1026 10 16 0.00 0.00
8:53 am 08:53 Sunny 27 -2.8 20 -6.7 75 75 N 12 19 30.32 1027 10 16 0.00 0.00
9:53 am 09:53 Sunny 31 -0.6 20 -6.7 64 64 NNW 7 11 30.32 1027 10 16 0.00 0.00
10:53 am 10:53 Sunny 35 1.7 20 -6.7 54 54 N 9 15 30.34 1027 10 16 0.00 0.00
11:53 am 11:53 Sunny 38 3.3 19 -7.2 46 46 N 7 11 30.34 1028 10 16 0.00 0.00
12:53 pm 12:53 Sunny 40 4.4 20 -6.7 45 45 VRB 7 11 30.33 1027 10 16 0.00 0.00
1:53 pm 13:53 Sunny 44 6.7 21 -6.1 40 40 N 7 11 30.31 1027 10 16 0.00 0.00
2:53 pm 14:53 Sunny 45 7.2 21 -6.1 39 39 VRB 5 7 30.30 1026 10 16 0.00 0.00
3:53 pm 15:53 Sunny 48 8.9 21 -6.1 34 34 VRB 7 11 30.29 1026 10 16 0.00 0.00
4:53 pm 16:53 Sunny 49 9.4 21 -6.1 33 33 Calm 30.28 1025 10 16 0.00 0.00
5:53 pm 17:53 Sunny 47 8.3 20 -6.7 34 34 Calm 30.27 1025 10 16 0.00 0.00
6:53 pm 18:53 Sunny 47 8.3 21 -6.1 36 36 VRB 5 7 30.27 1025 10 16 0.00 0.00
7:53 pm 19:53 Sunny 43 6.1 21 -6.1 42 42 E 6 9 30.27 1025 10 16 0.00 0.00
8:53 pm 20:53 Clear 40 4.4 21 -6.1 47 47 E 7 11 30.28 1025 10 16 0.00 0.00
9:53 pm 21:53 Clear 38 3.3 21 -6.1 51 51 ESE 7 11 30.27 1025 10 16 0.00 0.00
10:53 pm 22:53 Clear 37 2.8 21 -6.1 52 52 ESE 9 15 30.26 1025 10 16 0.00 0.00
11:53 pm 23:53 Clear 36 2.2 20 -6.7 52 52 ESE 9 15 30.24 1024 10 16 0.00 0.00

Powered by AerisWeather